Theta_e
339 337 339 338 336 334 335 336 336 334 335 334 334 332 329 327 323 321 320 323 325 329 331 328 331 334 336 337 338 339 337 338 340 340 338 329 329 337 341 341 341 341 340 339 339 339 340 340 341 343 345 347 348 349 348 348 349 349 349 348 347 346 346 345 344 343 343 343 342 342 340 338 338 338
342 339 338 339 337 338 339 339 340 335 334 334 334 333 331 330 327 323 321 322 325 326 330 330 328 332 335 337 337 338 338 342 342 338 339 329 327 332 337 338 338 338 338 337 336 337 338 339 340 341 342 345 347 347 348 348 348 348 348 347 346 345 344 345 344 342 342 341 340 338 337 337 335 335
344 340 337 337 338 338 339 340 341 342 335 336 333 333 332 332 330 327 324 319 324 329 328 330 331 331 334 337 337 338 339 342 343 339 339 335 334 334 334 336 336 335 335 334 334 334 335 336 338 339 340 341 343 344 345 347 347 347 346 346 345 345 344 343 342 342 340 338 337 336 334 334 334 334
344 342 339 337 337 338 338 340 340 340 340 337 337 335 333 332 331 331 327 324 325 330 330 330 331 332 333 336 336 336 338 341 347 341 340 339 341 336 332 336 335 334 333 333 333 332 332 333 335 337 339 340 342 344 343 344 345 344 344 344 343 343 342 341 341 339 337 336 335 334 334 334 333 333
345 344 341 339 338 337 337 338 339 340 341 339 338 338 336 333 333 331 330 327 327 330 333 334 334 336 333 333 336 336 336 337 339 344 340 339 338 337 336 334 337 335 332 332 331 332 332 332 333 335 338 339 341 343 344 342 341 340 340 340 338 337 340 339 337 338 336 335 334 334 332 332 332 332
346 345 343 341 339 338 337 337 338 339 340 341 337 336 337 335 335 334 331 329 329 328 329 332 335 334 334 331 335 335 335 335 338 340 341 340 339 337 337 338 338 337 334 331 330 330 331 331 332 334 336 337 338 339 339 339 336 336 336 335 334 334 333 333 334 335 335 334 333 332 331 331 331 331
346 345 344 343 342 341 338 337 338 339 339 341 339 337 337 335 335 336 334 331 329 328 329 331 333 334 334 332 333 335 336 337 338 339 339 339 340 339 337 337 339 339 336 333 331 330 330 331 332 332 333 334 334 334 334 333 333 332 331 330 332 333 331 330 331 333 333 332 331 331 331 330 330 330
346 345 344 344 343 342 339 338 338 338 338 339 340 338 337 337 335 336 336 333 331 330 329 329 332 334 332 333 333 336 336 335 335 338 339 339 339 339 340 338 338 339 337 335 334 332 331 330 330 330 331 331 329 329 329 328 330 329 328 328 328 328 328 326 327 330 328 328 329 329 330 329 329 328
347 346 345 345 344 342 340 340 338 338 337 338 339 339 338 337 337 337 337 335 333 330 329 330 331 334 334 334 334 335 334 335 335 336 337 337 337 338 340 341 341 339 336 336 334 333 331 331 331 330 329 329 328 327 327 326 327 327 326 325 325 325 326 325 322 325 324 323 324 323 325 327 327 327
349 347 346 346 345 343 341 341 341 339 338 338 337 338 338 337 337 336 336 337 335 332 332 331 331 329 334 334 334 335 335 334 334 335 337 337 337 336 336 339 342 342 341 338 337 334 332 331 330 330 330 329 327 326 326 325 324 324 323 320 320 322 323 323 323 322 321 321 322 323 323 325 325 326
352 349 347 347 346 344 343 342 341 341 340 339 338 338 338 338 337 336 335 336 335 335 333 332 332 332 333 334 334 334 336 335 335 333 333 335 338 336 335 335 338 341 341 339 338 337 336 335 332 326 325 326 326 326 325 324 323 322 320 318 318 319 319 319 321 321 320 320 320 319 318 319 324 325
353 351 349 348 347 346 345 344 343 342 341 340 339 339 338 338 337 336 336 335 335 335 334 334 333 333 333 330 334 334 333 333 332 334 334 332 333 335 336 335 335 336 338 338 338 337 336 334 332 327 326 326 327 326 326 326 326 324 321 319 321 321 319 318 319 319 318 317 316 316 316 314 317 319
354 353 352 350 348 349 346 340 340 340 339 342 339 340 339 338 337 336 336 336 334 334 334 333 334 332 332 333 333 333 333 333 333 334 333 332 333 334 335 336 337 336 335 336 336 335 335 333 332 331 329 328 328 328 328 328 330 327 321 320 322 323 321 318 318 318 317 316 316 314 315 315 315 317
354 354 353 353 346 340 338 336 334 333 333 334 340 341 340 339 338 337 336 335 335 334 333 333 333 332 331 332 333 333 334 336 334 332 332 331 332 328 332 334 336 338 337 334 333 335 335 333 332 330 329 330 333 329 328 328 328 328 325 323 322 323 322 319 318 317 317 316 315 314 313 314 315 315
353 354 354 354 351 343 338 340 333 332 331 331 332 335 337 337 341 338 337 336 336 335 334 334 334 333 332 333 334 334 335 335 335 334 333 333 331 330 328 328 332 338 338 335 334 334 335 333 331 330 329 330 331 331 329 329 328 325 325 324 323 323 322 321 320 318 316 315 315 314 313 313 314 314
352 352 353 354 354 352 350 348 344 336 330 329 330 331 332 333 334 336 339 338 336 336 334 334 334 334 333 334 334 334 334 334 335 335 334 333 332 331 330 330 329 333 340 336 333 333 334 333 332 331 331 331 331 332 329 328 327 325 324 324 323 323 322 321 322 321 319 317 316 316 315 315 315 314
352 352 352 352 354 355 344 346 349 347 343 330 327 328 329 330 330 331 332 334 340 339 337 335 334 335 335 334 335 336 336 336 333 334 333 333 332 333 332 332 333 332 339 336 333 332 334 333 332 331 332 332 333 333 330 328 327 325 323 323 324 323 322 321 321 321 320 318 316 315 315 314 314 314
354 353 351 351 351 353 353 351 349 349 347 346 341 336 334 336 336 330 328 328 330 336 339 337 335 337 337 335 336 339 338 335 333 333 333 334 333 332 332 335 335 334 340 336 333 330 332 334 333 331 333 334 334 334 331 327 325 325 323 323 322 321 321 320 320 320 319 317 315 313 312 311 311 311
355 355 354 353 352 352 353 353 350 350 349 348 346 343 341 339 339 340 339 338 338 338 339 340 339 339 339 338 339 338 339 339 337 336 335 335 335 336 336 335 335 332 340 338 334 330 333 335 333 333 334 334 335 336 330 326 325 325 322 322 321 320 320 320 320 319 317 315 313 312 311 310 309 307
356 356 355 354 353 353 353 345 334 339 350 349 347 345 344 343 342 341 336 335 336 340 341 341 341 341 341 336 341 341 339 339 339 340 339 337 334 333 332 331 333 334 337 339 335 331 330 334 334 334 335 333 332 334 335 327 324 324 322 322 321 319 318 318 318 317 316 314 313 312 310 308 306 306
355 356 356 355 355 354 354 343 332 330 334 348 348 347 346 345 344 344 345 333 328 328 328 328 330 330 330 329 327 327 329 336 338 338 335 333 334 332 330 330 330 332 335 339 338 334 331 332 335 333 333 333 332 331 332 332 324 323 322 321 320 318 317 317 316 315 314 313 312 312 312 308 306 307
354 354 348 356 355 354 354 338 330 329 332 345 348 348 347 345 344 345 346 345 341 327 325 326 327 328 328 329 328 326 326 326 330 338 333 335 334 332 331 329 330 332 334 337 341 334 333 332 334 332 325 328 328 331 329 328 326 323 319 317 318 317 316 315 314 314 312 312 311 311 310 308 307 308
354 353 350 344 344 349 347 333 329 326 331 346 348 349 348 346 346 347 347 345 344 342 339 337 336 336 335 337 336 336 328 327 340 338 338 337 335 332 332 331 330 329 331 336 342 334 332 330 331 332 321 322 320 323 327 326 323 323 324 323 321 316 316 314 312 310 310 310 310 310 308 307 308 309
352 353 353 347 329 327 328 328 325 323 321 342 349 349 348 347 346 350 348 347 346 344 343 342 342 340 340 340 340 339 339 338 339 338 340 339 337 335 333 333 331 329 331 335 342 336 334 333 330 332 329 322 318 317 322 322 321 322 321 320 320 318 318 316 312 309 307 308 308 308 308 307 308 309
352 352 353 353 337 325 322 321 321 320 318 323 345 350 349 349 349 346 349 348 340 345 344 343 343 342 342 341 341 340 340 340 339 339 338 340 340 338 335 334 333 333 334 336 337 338 333 332 331 329 324 323 316 316 318 320 320 321 321 319 318 318 316 315 313 311 309 306 306 306 305 306 307 308
352 353 354 353 342 329 322 320 318 317 318 318 332 344 331 331 331 343 348 350 349 345 344 343 342 342 342 341 341 341 341 341 341 341 340 339 340 343 341 338 334 332 333 337 332 339 335 330 332 328 325 320 315 317 315 316 319 319 319 318 318 317 316 315 314 311 310 310 309 307 307 307 308 308
353 355 355 353 339 327 321 317 316 316 316 317 326 321 322 323 325 330 342 345 343 339 339 338 339 340 342 342 341 341 341 342 342 342 342 343 343 342 343 342 340 338 338 338 339 341 337 333 334 330 326 323 319 314 316 315 314 318 317 317 317 316 315 314 313 313 312 312 313 310 307 307 308 309
355 355 357 350 330 320 314 313 314 314 314 324 318 316 317 318 320 331 337 339 338 335 335 336 337 339 342 343 343 342 343 343 343 343 344 343 343 342 341 342 344 342 340 337 339 341 339 335 333 332 330 323 320 313 313 315 316 317 317 317 317 316 315 315 314 317 318 315 313 313 313 311 313 308
354 324 307 308 312 316 315 314 314 315 315 313 312 313 314 319 328 331 333 337 337 335 334 334 336 337 339 342 344 346 346 345 344 342 341 341 342 342 342 341 340 340 341 338 338 340 339 337 333 332 329 325 322 318 317 313 313 314 316 315 312 315 316 316 314 314 315 313 312 310 311 310 309 315
314 314 315 315 320 325 327 333 336 338 338 324 320 318 319 328 331 333 334 336 335 333 333 333 333 335 338 341 344 345 343 342 342 341 339 337 337 338 337 336 336 337 338 337 338 339 339 337 334 330 326 323 324 319 316 313 311 313 316 314 312 317 315 314 313 312 316 312 311 312 310 310 310 315
332 333 333 334 324 322 322 323 322 324 328 332 333 335 335 334 334 335 335 336 334 332 332 332 333 334 335 337 338 339 340 339 340 341 338 337 336 336 336 335 334 334 335 335 336 338 338 336 333 328 325 323 323 321 316 315 312 311 312 311 311 308 309 311 311 309 309 309 310 310 312 313 313 321
334 336 329 329 335 336 337 338 339 340 340 337 335 337 338 338 338 336 328 328 334 336 337 336 336 335 335 334 335 336 337 338 339 339 338 337 336 335 335 333 332 333 332 329 332 337 340 334 330 328 327 323 320 317 315 314 313 311 311 312 312 310 311 310 309 309 310 309 307 306 308 311 311 314
334 332 332 331 332 333 334 335 337 338 339 340 341 341 342 342 342 341 339 339 338 338 335 335 335 335 336 336 336 335 334 335 336 338 337 337 336 335 334 332 332 331 328 325 326 330 332 329 330 327 325 324 322 317 314 312 312 311 311 311 311 309 308 308 308 307 307 306 307 307 307 308 310 311
329 328 328 328 329 330 331 332 332 332 330 329 328 328 323 327 328 327 328 329 330 332 332 335 336 336 337 337 337 337 335 336 337 336 332 336 336 333 332 331 331 332 329 326 325 325 324 323 322 321 321 320 320 319 318 314 311 311 311 311 310 308 309 309 308 308 308 306 305 305 305 306 307 308
324 323 323 323 324 324 324 323 323 323 323 323 323 323 324 324 324 323 325 325 325 325 326 327 329 331 333 334 335 336 336 336 337 338 335 335 335 334 333 331 331 330 328 326 322 322 321 319 318 316 316 315 315 316 322 318 313 311 310 310 310 309 309 310 308 307 307 307 306 306 306 305 306 306
321 320 320 319 318 319 320 319 320 320 321 322 322 323 323 323 324 324 324 324 325 325 325 325 325 326 327 329 330 332 332 332 334 335 335 334 333 333 332 331 330 330 328 324 321 321 320 318 318 315 312 311 310 309 312 321 318 313 311 309 309 308 309 309 311 309 309 307 307 305 304 302 302 305
320 319 318 317 318 318 319 319 320 321 322 322 323 324 324 324 324 325 325 324 325 323 324 323 324 324 325 326 327 326 328 329 330 332 332 334 333 332 331 330 329 329 325 322 320 319 319 317 317 315 313 310 309 308 310 314 314 314 313 310 309 309 309 308 310 307 308 308 306 304 303 302 302 304
319 316 316 316 316 317 317 318 321 322 323 323 324 324 323 324 324 324 324 323 322 322 322 322 323 324 325 326 326 327 329 331 331 331 330 331 330 330 330 329 328 324 321 318 318 318 318 317 316 316 314 311 309 308 308 311 314 314 312 313 310 310 311 308 307 307 306 306 306 305 302 301 302 304
318 318 318 318 319 319 319 319 321 321 320 319 320 320 320 320 320 321 321 321 321 321 322 322 323 324 324 326 326 326 327 328 328 328 328 329 329 329 329 328 325 320 318 316 317 317 317 316 316 315 314 312 310 310 311 310 310 314 313 309 312 310 310 309 307 305 305 305 305 305 305 303 306 312
318 319 320 319 318 317 317 317 319 321 321 319 318 319 318 318 318 318 319 319 320 321 321 320 320 318 321 321 320 323 326 327 328 325 322 321 320 320 321 321 319 317 315 314 314 314 315 315 315 315 315 314 314 314 313 312 308 308 313 310 307 311 312 310 307 306 304 304 304 304 303 302 305 301
318 320 318 318 318 318 318 317 319 321 321 319 318 316 318 317 317 317 318 318 319 319 319 318 318 317 318 318 318 318 317 317 317 317 317 316 315 315 314 314 315 316 314 313 313 313 314 316 320 318 317 313 314 313 310 305 303 304 305 310 307 307 310 312 310 307 306 305 304 302 300 300 300 301
317 318 317 318 320 318 317 317 318 320 320 319 317 317 316 317 317 314 317 318 318 317 317 317 317 316 316 317 317 317 317 317 317 317 317 316 315 315 315 315 315 315 314 313 313 314 318 321 321 318 316 315 313 310 307 306 304 304 305 307 310 309 308 308 309 310 310 307 304 301 300 300 300 300
318 317 318 317 316 317 317 318 318 317 318 316 315 315 315 315 315 316 316 316 316 316 316 316 316 316 315 315 316 315 315 315 315 316 316 316 316 315 315 315 315 316 315 315 316 317 318 318 317 315 314 313 312 311 307 306 304 304 304 305 306 309 311 311 308 308 310 310 309 308 306 303 300 297
318 319 316 316 316 317 317 317 316 316 315 315 314 313 314 314 314 315 314 315 315 315 315 315 315 316 316 315 315 315 315 315 314 314 314 314 315 316 315 315 316 316 316 316 315 315 316 316 315 314 312 310 311 310 309 307 305 305 304 304 307 306 307 309 309 309 310 311 311 309 310 308 307 308
316 316 315 316 316 316 317 316 316 316 315 314 313 313 313 313 313 314 314 314 315 315 315 315 315 316 316 316 316 314 315 312 313 315 315 316 315 315 315 316 315 315 315 315 314 314 315 314 314 314 313 311 311 311 310 309 307 306 306 305 305 306 306 308 307 306 306 306 309 309 309 310 311 308
Wind_Speed
6 5 5 6 6 5 4 4 5 5 5 6 6 7 7 7 6 4 5 7 7 6 7 5 7 9 9 8 7 8 9 9 11 9 9 9 8 13 18 18 17 17 17 17 17 16 16 16 16 15 15 14 13 12 11 10 10 11 10 9 8 7 6 4 4 3 4 5 5 5 5 6 6 6
6 6 5 5 6 5 5 6 5 5 6 6 6 7 6 7 8 6 7 8 6 5 4 7 5 6 9 8 7 7 9 12 13 9 9 9 9 14 17 18 18 17 17 17 17 16 16 16 15 15 14 14 13 13 12 11 11 12 11 10 8 8 7 5 4 4 4 4 5 5 5 5 5 6
7 7 7 6 6 5 6 5 5 4 5 6 6 6 6 7 7 8 6 4 6 6 7 7 5 6 10 9 9 8 8 10 13 10 9 9 12 15 13 18 18 18 18 17 17 16 17 16 15 15 14 14 14 14 13 13 12 12 11 10 9 8 7 5 4 5 5 5 5 5 5 5 5 6
7 8 8 8 8 7 5 6 6 6 5 5 6 6 6 7 7 7 7 8 9 5 7 6 6 6 8 9 9 10 8 8 14 9 9 10 13 10 8 14 18 18 18 17 17 17 17 16 15 15 14 14 14 14 14 13 13 12 11 10 8 8 7 6 6 6 6 6 6 6 5 5 5 5
8 9 9 9 9 7 7 7 6 6 6 4 6 6 7 7 7 7 7 8 9 5 3 4 5 4 5 6 9 10 9 8 8 9 8 8 8 8 8 9 15 18 18 18 18 18 17 16 16 15 15 15 15 14 13 13 13 12 11 10 9 8 7 7 8 8 8 8 7 5 5 6 5 5
9 9 10 10 9 8 9 8 8 7 6 6 6 6 7 7 8 8 8 8 7 10 3 4 4 2 4 6 5 11 10 10 7 9 9 7 8 8 8 8 9 17 19 18 18 18 17 16 16 16 16 17 16 15 14 13 13 12 12 10 10 9 9 9 10 9 9 8 7 6 6 6 5 5
10 10 10 11 10 7 8 9 9 7 7 7 7 8 6 7 8 8 8 7 8 8 8 5 5 5 3 7 7 8 8 9 9 10 10 10 8 8 8 8 8 13 18 19 19 18 18 17 16 17 17 17 16 15 14 13 13 13 12 12 11 11 11 11 11 10 9 8 7 7 7 6 6 6
11 12 11 12 11 9 10 10 9 8 7 8 8 8 7 7 8 7 7 8 8 7 8 5 8 5 5 6 5 5 6 8 8 9 9 8 9 9 8 9 8 11 17 18 19 18 18 17 17 17 17 17 16 15 14 13 13 13 13 13 12 12 12 12 11 11 10 9 8 8 7 6 5 5
13 13 13 13 11 10 11 10 9 9 10 10 9 9 8 8 7 6 7 8 6 7 9 7 4 4 5 5 5 6 7 6 6 5 7 8 9 9 9 8 9 11 15 17 18 17 17 17 18 18 17 17 16 15 15 14 14 14 14 13 12 12 13 13 12 11 11 9 8 8 7 6 5 5
13 13 14 13 11 11 12 12 11 10 11 10 10 10 9 8 7 7 6 6 7 8 10 7 7 4 6 5 5 5 7 7 7 7 7 5 7 7 7 8 7 6 6 6 8 11 13 16 18 18 17 17 17 16 15 15 15 14 14 14 13 13 13 13 12 12 11 10 8 8 7 5 5 6
13 13 13 12 12 12 13 13 12 12 12 10 12 11 11 9 7 8 8 7 8 9 9 8 7 8 6 6 8 5 6 7 8 9 8 9 8 6 9 9 7 6 7 9 13 12 11 13 12 15 17 17 18 17 16 15 15 14 14 14 14 13 13 13 12 12 11 10 9 8 7 6 5 6
13 13 12 12 12 13 13 14 13 12 12 10 11 11 10 9 9 9 8 7 8 9 9 10 10 8 8 6 5 1 3 6 7 9 10 12 10 9 8 9 9 7 7 8 7 9 11 12 14 14 14 15 16 16 14 15 14 15 14 14 13 13 13 13 12 12 11 10 9 9 8 7 6 6
12 12 12 12 12 13 16 18 16 15 14 10 11 11 10 10 10 10 8 9 8 9 9 10 8 7 7 9 8 8 8 12 15 7 7 9 8 7 8 9 8 7 8 8 7 8 8 9 8 8 7 9 13 14 15 11 14 15 14 14 14 14 13 13 12 12 11 10 10 9 8 7 7 8
12 12 12 12 17 17 18 18 19 18 18 18 14 12 11 12 11 11 11 10 10 9 10 12 11 10 12 11 11 12 13 11 5 5 8 11 9 4 8 7 8 8 8 7 9 9 7 8 8 7 8 8 9 8 8 9 10 13 15 15 14 14 14 13 13 12 11 10 10 9 8 8 8 8
12 12 13 12 14 16 16 17 20 20 21 20 21 20 18 15 14 12 13 12 11 11 12 12 10 12 14 14 12 12 12 9 11 11 8 10 6 9 9 12 6 6 9 9 9 9 7 7 8 7 8 8 7 7 9 14 16 16 16 16 15 15 14 13 13 12 11 11 10 10 9 9 9 9
12 13 13 12 11 11 14 15 15 18 21 22 22 22 21 20 20 19 16 14 12 12 12 13 13 13 14 14 11 12 11 12 10 10 9 10 10 10 11 11 12 4 10 10 9 11 3 5 7 7 8 7 7 9 12 16 16 16 15 15 16 16 13 14 14 13 12 11 11 10 10 9 9 10
12 11 11 12 11 11 17 16 14 14 15 19 22 22 22 21 20 20 23 22 17 12 13 14 15 15 14 14 14 13 14 10 10 9 10 10 10 11 12 13 11 5 10 10 9 10 6 7 8 9 8 7 6 8 11 15 16 16 16 16 15 14 13 14 14 14 13 12 12 11 10 10 10 10
13 13 12 12 12 12 12 12 14 14 14 14 14 15 15 15 18 21 24 25 24 19 15 14 16 16 13 15 15 13 10 10 12 11 13 12 12 12 15 16 14 4 8 11 8 7 7 7 7 10 9 6 6 7 10 15 15 16 16 15 14 13 14 15 15 14 13 13 11 11 10 11 11 11
14 13 13 13 14 13 12 12 14 14 15 14 13 14 15 16 16 17 18 18 16 16 16 17 18 17 14 16 17 11 8 13 13 13 15 15 15 14 10 8 6 4 7 8 7 11 7 6 8 10 8 6 7 7 9 14 15 16 15 14 13 14 15 15 15 15 14 13 12 11 12 12 12 11
12 12 13 13 14 14 13 15 18 17 14 13 14 15 16 15 15 17 19 21 20 18 17 17 19 18 17 16 14 12 10 9 10 10 9 6 5 6 9 13 9 9 6 10 10 8 7 6 10 9 6 6 7 7 6 10 16 16 15 14 15 16 16 16 15 15 14 13 12 12 12 13 13 10
12 12 13 13 13 13 14 16 17 18 17 14 16 16 16 15 15 17 15 17 21 22 23 24 25 25 23 19 17 16 17 14 11 8 9 12 8 10 13 13 9 10 7 8 10 8 8 6 9 7 5 8 8 7 7 6 10 15 15 15 16 16 16 15 16 16 15 14 13 13 13 13 12 6
11 13 19 17 15 15 15 17 18 18 16 15 17 16 16 16 18 19 13 7 12 19 21 23 24 24 23 22 19 16 16 18 14 12 16 14 10 14 13 14 11 9 7 8 9 7 12 5 6 6 1 3 4 6 6 6 7 10 12 16 17 16 16 17 17 16 15 14 14 13 13 14 8 4
11 12 14 19 18 16 17 19 18 18 16 15 16 16 15 19 20 20 7 11 12 9 10 14 16 17 20 18 17 18 21 19 19 17 18 13 13 15 14 13 8 8 9 7 11 11 8 7 7 8 4 5 4 4 7 7 7 7 7 8 10 14 17 17 17 16 16 15 14 13 13 14 6 3
12 12 12 13 17 21 21 20 19 19 20 18 16 15 16 18 22 13 8 14 11 11 14 15 13 15 14 13 15 16 16 16 17 19 18 17 15 16 15 13 13 13 8 7 14 13 8 8 8 9 9 6 5 4 5 6 6 7 7 7 8 11 13 14 12 15 14 13 13 12 13 13 7 5
12 11 11 11 14 18 21 21 22 21 21 21 17 17 18 18 19 15 12 13 13 13 13 12 12 12 12 13 13 15 16 17 16 17 19 18 18 18 15 13 10 10 11 10 19 13 11 10 10 8 7 6 4 5 4 5 5 7 8 9 9 6 7 7 6 7 9 12 12 12 12 12 9 8
11 11 10 10 14 19 20 21 21 23 21 21 15 19 22 23 21 17 14 12 7 4 5 6 9 12 12 12 13 14 15 15 16 17 18 19 19 15 12 12 12 14 20 13 24 16 10 7 12 12 9 8 5 6 5 4 5 7 6 6 7 8 8 8 6 7 6 7 7 8 11 15 11 12
12 11 11 12 17 18 18 18 19 19 21 17 16 23 23 23 23 19 13 8 5 6 4 8 14 14 13 14 14 13 13 15 15 15 16 17 12 11 8 13 18 22 16 10 18 17 16 12 12 14 13 12 9 7 7 8 5 5 5 6 7 6 7 7 8 8 7 7 7 10 11 8 9 11
11 11 12 9 10 11 13 14 14 15 13 11 16 18 20 20 17 11 9 2 4 2 8 14 15 16 15 13 14 14 13 13 13 14 15 9 9 12 14 18 20 18 14 15 18 19 18 14 13 14 14 13 10 10 10 4 5 10 10 7 6 6 6 7 7 7 7 7 6 5 4 5 4 4
5 5 8 9 7 6 6 9 10 10 13 15 16 18 18 15 9 10 7 6 6 7 14 16 15 15 16 17 15 13 12 11 11 11 7 10 12 14 15 17 17 16 14 13 16 17 17 17 15 14 13 13 13 9 9 10 8 8 9 10 5 7 7 7 7 7 7 6 7 7 7 7 4 5
10 11 10 9 7 4 4 4 3 5 7 9 13 15 13 8 8 7 5 7 11 10 14 12 12 14 16 15 13 11 7 9 13 12 10 9 10 12 13 13 14 15 15 13 14 16 17 16 15 15 12 10 12 11 8 7 4 6 8 10 7 4 5 7 7 6 6 7 6 6 6 6 6 6
9 10 8 6 7 8 10 10 9 9 8 8 8 6 5 6 6 7 5 5 8 11 12 12 13 14 18 16 14 14 12 13 13 11 12 12 13 13 13 15 15 14 14 12 12 16 17 16 13 14 15 12 12 12 10 9 9 7 6 5 9 8 6 6 6 6 6 6 5 3 2 3 3 4
6 5 4 5 4 4 5 5 4 4 4 5 6 6 6 6 7 7 8 6 6 7 9 10 11 12 13 15 16 15 14 15 16 14 13 13 13 13 13 14 16 15 14 12 13 15 13 10 10 11 15 16 14 10 9 8 10 9 7 5 5 3 6 8 6 5 4 5 4 2 3 5 6 6
2 1 1 2 3 3 4 4 4 4 5 5 5 6 7 6 7 6 5 7 6 6 7 8 10 12 13 15 14 15 15 17 17 15 14 14 13 12 13 17 16 15 15 14 12 12 11 11 10 10 10 12 13 14 13 9 8 7 8 6 5 5 5 5 6 5 3 4 4 3 1 2 4 6
5 3 4 4 3 4 4 4 4 5 6 6 7 7 8 8 8 8 8 8 8 8 8 8 9 10 11 13 14 14 16 16 16 16 16 15 13 13 14 15 15 14 14 14 14 12 10 9 9 8 8 6 5 6 12 14 10 9 7 7 7 6 5 4 4 4 6 4 5 4 2 2 4 4
4 4 5 4 5 5 5 5 5 5 6 6 7 8 8 8 8 9 9 9 9 10 10 10 10 12 12 14 14 14 15 16 17 14 12 12 13 15 16 17 18 17 15 13 11 12 14 14 13 11 10 9 7 3 5 6 11 9 7 7 6 6 6 4 5 4 4 2 4 5 3 2 3 5
6 5 5 5 4 3 4 3 3 4 5 5 6 7 8 10 9 8 9 9 10 11 10 10 11 11 12 12 13 14 14 14 15 15 14 13 13 14 14 15 16 17 16 14 13 14 14 16 18 18 16 13 12 8 4 3 6 8 9 6 5 5 5 5 4 4 5 5 5 6 6 6 6 5
6 5 6 6 5 5 4 4 4 5 5 6 6 6 7 8 9 9 10 10 10 10 11 11 11 11 12 12 13 13 14 14 15 14 14 15 15 16 17 16 17 16 12 11 12 14 13 14 13 15 14 13 13 12 7 5 4 3 8 8 6 5 6 5 5 5 5 5 6 7 7 6 4 5
7 6 6 4 3 2 2 3 4 4 4 4 4 5 5 6 7 9 9 9 10 10 11 11 11 11 11 11 12 12 12 12 12 13 13 11 11 11 11 13 12 8 9 10 11 11 12 17 19 18 19 19 16 13 11 4 5 4 8 8 8 7 6 6 6 7 4 3 7 7 5 4 5 6
6 5 5 4 3 3 3 2 1 2 3 3 3 4 5 6 6 7 8 8 9 10 10 10 10 10 11 11 11 12 12 12 11 9 9 9 9 12 13 12 7 6 11 12 10 8 5 3 6 7 11 13 14 12 13 11 6 4 9 14 8 7 7 8 7 6 6 5 4 2 1 1 1 5
5 5 4 4 3 3 2 1 2 2 3 3 4 4 5 6 6 7 8 8 9 9 8 9 10 10 9 9 9 9 9 9 8 4 3 6 6 7 6 6 5 8 11 10 10 9 7 7 8 9 10 10 8 8 9 9 5 2 3 3 10 11 8 7 7 6 4 5 5 6 4 1 2 2
4 5 4 3 4 4 4 3 3 3 4 4 5 5 5 5 6 7 7 8 7 8 8 8 9 9 10 10 9 7 8 8 8 7 7 7 10 12 16 16 16 13 10 12 14 13 10 8 12 19 14 10 8 9 8 7 6 2 3 3 4 5 9 11 7 7 5 4 6 6 6 4 3 1
5 5 4 5 5 4 3 4 4 4 4 4 4 5 5 6 6 9 8 9 8 8 8 8 9 9 9 9 9 10 9 8 9 10 11 12 13 15 19 17 16 17 16 13 12 10 9 9 10 10 9 10 7 5 5 6 3 1 1 2 1 4 5 7 6 8 7 8 6 3 2 2 2 0
4 5 5 4 3 3 3 4 3 3 3 3 4 4 5 6 5 7 7 7 7 7 7 8 8 8 8 8 8 8 8 10 10 9 9 10 13 15 14 13 14 15 16 14 12 11 9 8 11 11 9 8 4 6 8 7 5 5 2 2 1 1 4 7 8 7 3 6 5 6 6 6 6 2
5 5 4 3 4 3 2 3 3 2 2 2 3 3 4 4 5 5 5 5 6 6 6 6 6 7 8 8 8 9 10 9 9 9 8 8 8 11 14 14 14 14 13 13 11 10 10 10 8 9 8 5 4 4 5 5 5 4 5 3 1 2 5 2 2 3 4 6 9 9 7 9 10 9
5 4 3 2 2 2 1 1 2 2 2 3 3 4 3 3 3 4 5 5 5 5 5 5 6 7 7 8 8 9 8 8 9 9 10 10 10 10 10 11 11 10 10 10 12 10 8 8 7 6 6 6 5 6 6 5 5 5 4 3 5 4 4 2 3 3 3 3 9 13 13 11 11 6
Wind_Direction
201 208 213 209 215 216 207 211 200 199 192 195 188 181 175 170 162 190 215 231 223 244 205 214 231 206 211 212 209 207 211 212 201 202 201 204 210 214 213 214 215 215 218 220 223 225 227 229 231 233 234 233 232 232 234 238 245 251 253 250 249 244 240 235 230 232 246 258 260 266 273 281 290 299
200 203 214 219 220 219 201 212 209 191 197 197 197 196 190 170 183 181 191 238 211 234 232 214 226 204 213 211 213 209 216 214 203 203 203 205 212 215 213 214 216 218 219 221 224 226 228 229 230 231 232 232 231 231 231 230 235 241 243 241 238 237 236 225 210 217 221 228 241 248 260 272 282 293
193 203 210 215 224 216 208 214 220 208 186 203 203 210 185 191 188 179 174 220 262 185 214 230 220 197 209 205 210 215 220 215 207 205 206 210 214 215 217 216 217 219 220 222 225 227 229 230 229 229 229 230 228 228 226 225 226 229 230 229 227 226 227 220 202 206 210 216 228 241 256 267 279 283
198 204 211 213 217 222 212 218 220 226 213 199 203 205 197 199 193 175 180 205 244 214 209 223 232 207 206 206 205 217 221 219 212 208 209 213 214 217 223 223 221 220 221 223 225 228 230 230 230 230 230 229 229 226 223 219 219 221 221 218 214 213 216 207 197 207 212 214 222 236 249 261 271 277
201 205 212 217 218 214 216 221 219 221 224 208 214 211 197 201 191 179 189 210 245 280 227 221 234 223 188 213 211 212 215 215 217 217 217 212 210 214 217 221 222 222 223 224 226 229 230 230 229 230 230 230 229 226 219 217 216 218 218 215 209 206 209 199 201 205 208 213 215 225 244 255 263 268
206 206 211 219 219 210 217 221 221 216 218 213 215 218 203 203 197 194 179 213 212 244 275 263 263 274 183 221 200 207 208 217 209 214 216 218 216 217 214 218 224 220 222 225 227 229 229 228 228 228 230 230 230 229 225 217 216 216 216 212 207 204 203 200 201 203 205 206 210 221 237 246 250 261
204 208 212 217 215 210 216 223 227 218 216 213 214 220 213 212 206 197 197 181 215 229 245 217 242 234 212 207 220 216 219 214 203 207 213 214 218 223 216 217 222 219 218 222 226 228 228 227 225 226 228 229 229 229 224 216 214 214 213 208 204 201 201 202 202 201 200 202 207 221 231 237 242 250
203 209 212 216 210 209 215 222 223 224 219 215 216 220 219 219 217 204 202 208 204 212 234 237 209 222 210 236 233 221 219 211 207 212 217 215 220 221 221 220 222 219 216 221 223 226 226 225 223 224 226 227 227 226 220 213 212 211 210 206 203 201 202 203 203 200 199 200 204 221 230 234 238 246
205 209 212 215 206 203 212 222 223 220 221 222 217 220 219 217 221 213 206 213 209 213 226 244 223 212 225 229 224 199 201 228 232 225 220 215 218 222 222 223 226 223 213 217 220 222 222 222 222 222 223 225 225 223 218 212 211 211 209 207 203 203 204 205 202 199 198 199 207 216 225 229 237 246
210 211 214 215 205 203 208 217 219 221 223 222 223 224 222 219 212 215 218 209 213 219 234 229 253 227 219 239 237 206 200 208 223 235 237 243 234 223 230 231 229 224 212 213 223 226 226 226 224 221 221 223 223 222 217 212 211 210 209 207 206 206 206 207 201 198 198 202 207 214 216 214 229 240
216 216 217 215 208 206 210 215 216 217 221 221 225 224 226 221 211 218 218 211 213 220 232 239 233 242 232 211 235 231 204 215 211 214 225 242 232 221 220 230 229 226 226 220 212 210 210 216 219 222 222 222 222 221 217 212 209 208 207 207 207 208 209 207 201 199 199 201 205 210 210 214 228 239
219 219 220 220 215 212 212 215 219 215 218 218 225 224 222 221 216 222 222 218 219 224 230 234 236 228 237 241 247 223 178 225 248 224 211 226 225 226 223 223 218 222 221 227 223 227 226 228 227 228 225 226 225 223 220 215 211 209 207 207 209 210 212 207 202 202 203 201 203 207 206 209 225 235
221 221 221 224 223 219 219 217 219 217 214 211 219 224 217 220 217 224 225 224 221 229 232 242 239 237 233 233 226 222 213 212 225 205 203 236 230 219 228 236 224 214 208 221 219 217 204 213 217 213 217 221 217 222 214 215 212 211 209 208 209 212 211 204 203 204 204 200 202 205 205 211 218 226
223 223 222 224 224 223 222 222 223 225 222 220 219 218 211 215 215 219 223 224 222 224 229 234 232 232 237 231 222 226 227 228 225 188 199 223 227 192 240 257 233 212 206 212 223 225 202 202 217 208 217 225 201 211 201 212 207 209 208 208 210 211 210 201 201 203 202 199 201 202 206 211 218 224
223 226 225 227 224 223 225 226 224 223 224 224 225 226 218 210 208 213 219 225 218 218 226 231 228 231 237 235 227 226 231 223 216 218 205 220 203 209 219 240 246 197 196 218 225 237 210 191 217 219 223 218 202 204 208 208 208 208 204 207 209 210 206 197 197 199 200 199 199 202 207 212 218 225
222 225 226 226 226 223 222 224 226 227 227 226 227 228 227 222 216 214 213 218 220 217 225 228 226 227 231 236 226 229 223 227 221 221 212 213 212 218 223 232 235 203 181 207 215 240 197 188 217 226 226 220 208 208 208 206 207 208 207 205 207 207 197 192 193 196 197 197 198 201 206 212 220 223
222 224 226 229 227 229 223 223 226 226 230 231 232 232 232 231 225 224 226 224 222 215 223 229 233 223 229 234 233 220 220 214 220 217 222 220 220 221 225 230 235 223 187 191 215 234 213 171 210 227 229 216 213 218 212 209 205 206 207 208 208 201 190 190 193 195 195 194 196 201 208 216 222 225
223 223 224 227 230 228 224 223 224 227 229 229 230 235 236 235 234 232 231 230 229 225 225 227 235 234 217 231 234 225 209 201 216 213 223 218 223 224 227 227 227 208 154 189 195 236 220 184 197 223 229 202 216 218 213 207 207 207 208 210 207 194 190 191 192 192 191 194 196 204 215 221 225 225
224 225 226 229 233 231 228 225 221 224 227 229 231 233 234 232 233 230 231 231 230 228 231 233 237 242 229 232 237 230 202 213 217 213 219 215 217 226 243 265 246 205 188 184 174 229 215 172 198 224 214 196 213 212 217 207 208 209 209 208 198 192 191 191 190 188 191 195 198 209 218 223 225 223
226 226 227 230 234 235 233 230 221 220 224 230 233 235 237 238 236 237 232 228 226 228 230 233 238 242 238 233 236 229 215 218 223 231 239 243 231 230 236 239 228 229 198 194 192 223 222 184 195 223 198 179 212 213 211 207 207 208 207 203 196 193 191 190 188 188 192 196 203 212 220 226 226 220
227 228 228 229 235 236 237 231 220 218 215 230 233 235 239 239 241 244 238 227 230 233 235 238 241 246 250 246 241 233 218 215 210 216 227 229 196 214 231 238 226 233 193 209 204 214 232 193 196 209 195 190 206 207 210 205 208 210 207 203 198 192 190 188 188 189 192 199 206 214 222 227 227 194
231 229 228 228 232 236 239 232 223 216 206 227 234 237 240 244 244 247 238 231 232 230 235 241 245 248 252 253 253 246 232 221 205 208 224 220 194 223 225 233 224 230 209 206 189 203 230 167 188 189 186 175 230 205 205 197 204 209 211 205 195 190 188 187 189 191 197 202 209 215 223 230 210 158
235 235 231 229 231 236 239 235 228 217 204 225 232 235 239 244 247 247 225 232 237 231 231 241 242 248 248 248 246 244 236 227 219 219 228 219 209 223 224 226 223 237 235 193 172 206 222 164 205 165 138 216 258 205 195 190 188 188 191 197 199 193 186 189 189 195 200 205 212 218 226 235 179 168
236 237 238 233 229 234 239 240 234 225 209 220 232 232 237 243 249 252 230 234 227 233 234 241 236 240 242 240 239 242 240 229 224 227 226 223 218 222 226 217 212 221 223 151 176 205 212 193 199 198 182 167 215 207 174 194 188 185 177 174 184 200 198 191 196 201 206 209 213 222 229 238 179 171
235 237 235 239 230 226 232 235 237 234 223 220 230 234 237 239 247 248 242 242 219 231 239 242 246 246 240 235 233 234 233 232 226 225 228 227 222 220 221 219 213 237 234 197 182 197 205 191 197 184 211 198 177 157 193 173 189 186 181 179 186 185 176 193 193 202 217 218 220 226 236 243 199 184
235 238 239 238 233 229 227 229 233 236 234 229 229 241 243 247 249 249 246 249 249 273 308 313 280 259 251 246 239 236 236 235 232 228 227 228 227 222 215 195 198 219 229 189 181 198 191 190 192 187 193 188 220 173 144 193 190 192 179 189 191 179 176 185 192 208 202 201 212 218 226 233 219 201
233 232 236 242 237 234 233 232 234 236 237 236 237 244 250 251 251 251 247 263 27 30 314 265 262 264 258 253 248 244 242 240 237 237 234 232 217 215 207 202 211 221 221 159 191 190 196 199 190 188 193 197 182 182 175 172 196 160 176 195 198 182 185 181 191 203 200 197 210 208 216 231 225 208
228 232 233 255 278 270 261 256 255 255 258 258 258 256 258 267 274 277 276 20 95 88 273 266 263 261 261 262 258 250 247 247 243 238 240 223 193 207 214 216 222 227 213 191 191 195 193 193 191 197 189 181 181 178 193 184 139 172 186 188 192 189 181 187 199 201 201 195 192 178 172 221 219 164
242 11 10 358 349 322 289 265 260 261 256 254 257 264 267 268 266 261 245 126 148 200 242 247 254 262 262 258 260 265 262 258 253 249 217 184 196 201 209 216 220 221 218 207 195 194 192 194 195 187 185 179 174 197 181 178 167 179 177 157 190 203 188 191 191 193 192 181 184 170 181 190 196 174
316 304 305 314 308 311 324 314 290 272 273 267 260 261 266 272 267 276 280 146 175 219 252 261 263 269 274 269 268 276 283 262 249 244 228 200 201 200 205 215 224 223 221 212 200 196 196 195 192 177 166 164 181 182 182 142 174 177 169 176 172 121 167 173 185 193 170 177 178 179 196 180 189 161
273 280 280 285 291 287 277 273 266 270 285 292 288 284 270 259 261 261 242 204 192 215 231 238 238 242 253 266 274 265 259 256 252 235 233 219 215 205 209 212 221 221 221 210 200 201 201 194 186 168 168 173 175 175 174 163 153 165 178 168 154 171 182 162 176 181 185 171 157 143 132 164 189 188
258 267 300 316 330 319 317 312 323 316 301 279 286 284 283 280 274 272 265 254 220 226 233 238 241 245 251 258 257 259 254 253 255 245 235 229 223 210 207 216 223 219 213 204 208 210 198 180 176 177 177 167 170 166 144 145 146 157 165 185 173 120 131 168 176 190 178 131 110 152 198 167 177 181
108 91 49 36 14 22 1 347 337 334 327 322 312 311 316 314 308 305 305 292 273 245 225 236 238 244 247 251 255 256 254 251 252 249 244 232 224 218 210 217 218 211 208 202 201 198 186 180 181 178 174 164 164 149 141 120 125 148 166 178 173 163 153 160 165 168 135 119 151 149 174 212 186 187
96 80 77 47 34 15 15 3 357 349 347 340 336 330 328 324 322 321 320 317 316 312 294 283 271 264 262 263 260 259 257 259 254 248 240 240 222 220 217 221 221 215 207 204 195 182 163 150 131 97 81 75 72 151 149 144 154 162 171 167 167 169 179 164 194 173 163 161 156 141 150 212 223 221
73 71 64 42 37 27 19 18 356 345 345 338 333 327 323 319 323 325 317 317 314 304 298 288 280 274 271 270 270 268 265 264 263 261 251 246 239 229 222 218 216 210 205 201 180 172 165 152 136 121 115 119 111 26 40 107 138 154 150 166 163 159 173 183 186 184 166 153 115 146 169 199 248 251
76 77 84 67 47 35 21 359 345 337 331 329 337 331 328 322 322 320 314 313 310 302 295 291 285 280 274 271 271 271 272 272 270 264 257 244 236 228 221 220 216 215 205 193 173 174 171 157 154 154 156 154 138 134 172 137 138 146 156 161 163 159 164 178 201 174 164 155 165 145 157 185 219 255
85 65 56 50 24 21 5 345 350 350 345 342 338 336 326 319 318 315 312 309 302 299 295 294 289 284 279 272 268 264 263 263 266 266 261 252 238 226 221 219 219 215 196 181 167 160 157 158 156 149 147 144 142 147 135 113 124 145 155 163 169 168 163 162 164 184 200 165 161 164 170 166 204 248
88 81 72 68 56 31 12 358 352 347 339 324 310 309 306 303 306 309 309 312 312 310 305 299 293 287 280 275 275 274 269 266 263 259 259 259 256 248 235 228 221 192 167 154 157 167 174 163 163 165 161 158 144 137 132 114 120 207 205 161 167 167 158 150 173 184 197 176 171 182 129 135 198 228
98 101 98 89 72 66 52 16 326 314 310 303 302 305 309 309 307 308 319 320 318 314 310 307 307 305 298 291 284 278 276 269 263 263 264 263 252 247 237 229 207 150 149 148 148 144 123 102 124 137 126 125 133 147 137 130 161 184 183 183 157 140 161 171 180 178 162 172 210 125 216 226 171 88
101 104 102 90 73 71 62 31 5 348 338 337 328 321 324 324 326 328 331 332 329 327 326 329 327 325 323 320 315 309 298 290 291 339 49 73 49 40 28 31 70 118 111 90 82 75 72 79 81 72 67 64 67 83 98 104 103 89 73 174 164 159 172 165 170 157 184 195 146 146 192 30 209 344
97 81 74 87 80 53 37 21 9 356 357 348 347 338 337 330 338 340 334 331 333 336 337 336 338 340 342 342 344 359 37 47 56 58 52 67 81 85 84 81 71 49 54 92 98 97 92 86 84 78 77 82 83 74 69 75 96 73 46 90 186 197 167 178 169 163 171 158 158 161 167 164 191 107
100 87 71 60 63 41 30 18 6 7 357 356 351 350 340 346 343 340 337 336 336 336 337 337 338 336 339 342 352 358 11 34 61 75 84 92 92 88 88 90 89 94 94 83 74 84 101 117 120 110 96 83 73 83 92 113 127 123 21 13 114 201 221 219 193 188 162 145 130 119 104 71 74 30
85 85 68 58 61 52 25 13 5 2 349 344 356 354 354 348 349 351 347 341 338 342 342 339 337 339 344 350 352 2 17 26 25 36 58 82 93 96 94 96 101 102 105 114 125 133 146 129 99 94 107 115 130 127 143 165 168 141 105 103 162 173 227 230 228 234 219 181 180 169 166 164 128 192
87 80 73 66 71 50 16 358 347 339 350 358 353 357 11 1 353 344 340 339 343 343 339 344 348 1 5 6 10 26 30 25 23 20 20 23 58 91 105 110 113 117 118 122 119 112 97 91 102 109 106 114 113 118 138 131 135 153 167 159 118 144 212 196 150 216 228 244 251 253 227 176 191 175
90 93 89 68 70 60 16 336 357 349 4 14 17 16 7 12 358 341 343 349 347 343 352 356 3 10 17 17 25 31 23 29 39 38 37 46 47 51 68 90 99 102 103 102 94 88 90 101 101 107 110 125 143 155 148 148 164 170 168 163 185 198 187 164 158 202 220 272 237 222 227 227 235 116